Location: *
(51.1248°S, 108.4023°W)
Time: 03:24:11
(UTC+00:00)

Cosmos 2218 Rocket - Pass Details

Date: 15 June 2021
Orbit: 955 x 1007 km, 82.9° (Epoch: 31 July)

Event Time Altitude Azimuth Distance (km) Brightness Sun altitude
Rises 14:11:29 0° 191° (S) 3,678 6.7 -9.5°
Reaches altitude 10° 14:14:00 10° 192° (SSW) 2,725 6.0 -9.2°
Maximum altitude 14:20:15 81° 277° (W) 987 4.0 -8.3°
Drops below altitude 10° 14:26:27 10° 3° (N) 2,708 6.8 -7.5°
Sets 14:28:56 0° 4° (N) 3,652 7.5 -7.1°
